Tracking 19827 objects as of 22-Aug-2019
HD Live streaming from Space Station
objects crossing your sky now

SCOUT G-1 DEB

Track SCOUT G-1 DEB now!
10-day predictions


NORAD ID: 43332
Int'l Code: 1988-033N
Perigee: 1,009.5 km
Apogee: 1,283.2 km
Inclination: 90.4 °
Period: 108.1 minutes
Semi major axis: 7517 km
RCS: Unknown
Launch date: April 26, 1988
Source: United States (US)
Launch site: AIR FORCE WESTERN TEST RANGE (AFWTR)

Note: This is SATELLITE DEBRIS
aabbcc
Your satellite tracking list
Your tracking list is empty




NASA's NSSDC Master Catalog

Two Line Element Set (TLE):
1 43332U 88033N   19232.45190361  .00000059  00000-0  98726-4 0  9993
2 43332  90.3640 298.7719 0182056 349.9435   9.8081 13.32001068744567
Source of the keplerian elements: AFSPC